This is the latest recevied weather packets stored in our database for station/object SV9TNF-2. If no packets are shown the sender has not sent any weather packets the latest 10 day(s).
| Time | Temp. | Humidity | Pressure | Rain* | Wind** | Luminosity | Snow |
|---|---|---|---|---|---|---|---|
| 1777857610 | 14.44° C | 61% | 1023.7 hPa | 0 mm | 8.05 m/s, 92° | - | - |
| 1777857310 | 14.44° C | 59% | 1023.7 hPa | 0 mm | 8.05 m/s, 163° | - | - |
| 1777857010 | 15° C | 62% | 1024.4 hPa | 0 mm | 12.52 m/s, 27° | - | - |
| 1777856710 | 14.44° C | 57% | 1024.4 hPa | 0 mm | 12.96 m/s, 15° | - | - |
| 1777856410 | 15° C | 61% | 1023.7 hPa | 0 mm | 25.48 m/s, 19° | - | - |
| 1777856110 | 14.44° C | 61% | 1023.7 hPa | 0 mm | 19.22 m/s, 20° | - | - |
| 1777855810 | 15° C | 62% | 1023.7 hPa | 0 mm | 5.36 m/s, 87° | - | - |
| 1777855510 | 15° C | 61% | 1023.7 hPa | 0 mm | 13.86 m/s, 46° | - | - |
| 1777855210 | 15° C | 60% | 1023.7 hPa | 0 mm | 19.22 m/s, 30° | - | - |
| 1777854909 | 15° C | 61% | 1023.7 hPa | 0 mm | 21.01 m/s, 12° | - | - |
| 1777854609 | 15° C | 60% | 1023.7 hPa | 0 mm | 18.33 m/s, 293° | - | - |
| 1777854309 | 15° C | 60% | 1023.7 hPa | 0 mm | 17.43 m/s, 31° | - | - |
| 1777854009 | 15° C | 59% | 1023.7 hPa | 0 mm | 27.72 m/s, 10° | - | - |
| 1777853709 | 15° C | 61% | 1023.7 hPa | 0 mm | 23.69 m/s, 29° | - | - |
| 1777853409 | 15° C | 61% | 1023.7 hPa | 0 mm | 19.67 m/s, 109° | - | - |
| 1777853109 | 15° C | 59% | 1023.7 hPa | 0 mm | 22.35 m/s, 49° | - | - |
| 1777852809 | 15° C | 58% | 1023.7 hPa | 0 mm | 22.35 m/s, 36° | - | - |
| 1777852508 | 15° C | 58% | 1023.7 hPa | 0 mm | 12.52 m/s, 85° | - | - |
| 1777852209 | 15° C | 55% | 1023.7 hPa | 0 mm | 29.95 m/s, 19° | - | - |
| 1777851908 | 15° C | 57% | 1023.7 hPa | 0 mm | 21.9 m/s, 2° | - | - |
| 1777851608 | 15° C | 59% | 1023.7 hPa | 0 mm | 24.59 m/s, 313° | - | - |
| 1777851308 | 15° C | 58% | 1024.4 hPa | 0 mm | 22.8 m/s, 56° | - | - |
| 1777851008 | 15° C | 57% | 1024.4 hPa | 0 mm | 24.14 m/s, 0° | - | - |
| 1777850708 | 15° C | 55% | 1024.4 hPa | 0 mm | 23.69 m/s, 356° | - | - |
| 1777850408 | 15° C | 60% | 1024.4 hPa | 0 mm | 14.75 m/s, 356° | - | - |
* Rain latest hour (hover to see other rain measurements)
** Current wind speed in m/s (hover to see current wind gust speed)